Regional Weather Roundup
Issued by NWS

Home | Current Version | Previous Version | Graphics & Text | Print | Product List | Glossary On
Versions: 1 2 3 4 5 6 7 8 9 10 11 12 13 14 15 16 17 18 19 20 21 22 23 24 25 26 27 28 29 30 31 32 33 34 35 36 37 38 39 40 41 42 43 44 45 46 47 48 49 50
000
ASUS43 KTOP 051359
RWRKS

WEATHER ROUNDUP FOR KANSAS
NATIONAL WEATHER SERVICE GOODLAND KS
900 AM CDT SAT SEP 05 2015

NOTE:  "FAIR" INDICATES FEW OR NO CLOUDS BELOW 12,000 FEET WITH NO
SIGNIFICANT WEATHER AND/OR OBSTRUCTIONS TO VISIBILITY.

KSZ001>006-013>018-027>032-041>047-051500-
NORTHWEST KANSAS

CITY           SKY/WX    TMP DP  RH WIND       PRES   REMARKS
GOODLAND       CLOUDY    71  57  61 S12       29.93R
HAYS           PTSUNNY   79  63  57 S21G29    29.93S
HILL CITY      CLOUDY    78  63  59 S17G24    29.91S
RUSSELL        PTSUNNY   78  65  63 S20G25    29.94R
$$

KSZ061>065-074>080-084>089-051500-
SOUTHWEST KANSAS

CITY           SKY/WX    TMP DP  RH WIND       PRES   REMARKS
DODGE CITY     PTSUNNY   74  63  68 S17       29.99R
ELKHART          N/A     69  55  60 S7          N/A
GARDEN CITY    MOSUNNY   73  62  68 S16       29.97S
GREAT BEND     PTSUNNY   79  64  61 S18G24    29.97R
LIBERAL        SUNNY     73  61  64 S15       30.01R
$$

KSZ066>073-081>083-090>101-051500-
SOUTHEAST KANSAS

CITY           SKY/WX    TMP DP  RH WIND       PRES   REMARKS
CHANUTE        SUNNY     78  71  79 S9        30.05R
COFFEYVILLE    SUNNY     78  71  79 S8        30.04R
HUTCHINSON     MOSUNNY   79  67  66 S13       30.00R
NEWTON         SUNNY     79  66  65 S14       30.04R
PARSONS        SUNNY     79  72  79 S6        30.06R
WICHITA INTL   MOSUNNY   79  69  71 S13       30.01R
WICHITA JABRA  SUNNY     79  69  71 S8G20     30.02R
WINFIELD       SUNNY     80  70  71 S9        30.03R
$$

KSZ007>012-019>026-033>040-048>060-102>105-051500-
NORTHEAST KANSAS

CITY           SKY/WX    TMP DP  RH WIND       PRES   REMARKS
CONCORDIA      SUNNY     79  68  69 S15G24    29.96R
EMPORIA        SUNNY     77  70  79 S14       30.02R
LAWRENCE       SUNNY     79  70  74 S6        30.02R
MANHATTAN      SUNNY     81  69  67 S6        29.99R
OLATHE IND     SUNNY     78  70  76 S12       30.05R
OLATHE EXE     SUNNY     76  70  82 S7        30.04R
SALINA         SUNNY     82  68  62 S15G22    29.97R
TOPEKA BILLARD SUNNY     79  70  74 S13       30.01R
TOPEKA FORBES  SUNNY     80  70  71 S9        30.02R
$$



USA.gov is the U.S. government's official web portal to all federal, state and local government web resources and services.